Asheville, NC

5:07 PM EDT on July 24, 2017 (GMT -0400)
Asheville Regional

Weather History for KAVL - February, 2013

Change the Weather History Date:

Friday, February 8, 2013

  Actual Average Record
Temperature  
Mean Temperature 43 °F 39 °F  
Max Temperature 52 °F 50 °F 70 °F (1937)
Min Temperature 34 °F 29 °F -9 °F (1895)
Degree Days  
Heating Degree Days 22 26  
Month to date heating degree days 208 212  
Since 1 July heating degree days 2455 2739  
Cooling Degree Days 0 0  
Month to date cooling degree days 0 0  
Year to date cooling degree days 0 0  
Moisture  
Dew Point 37 °F    
Average Humidity 72    
Maximum Humidity 100    
Minimum Humidity 44    
Precipitation  
Precipitation T in 0.13 in 1.02 in (1905)
Month to date precipitation 0.42 1.06  
Year to date precipitation 9.00 4.73  
Snow  
Snow 0.00 in 0.00 in 2.10 in (1995)
Month to date snowfall T 0.7  
Since 1 July snowfall T 5.8  
Snow Depth 0.00 in    
Sea Level Pressure  
Sea Level Pressure 29.96 in    
Wind  
Wind Speed 10 mph (NNW)    
Max Wind Speed 26 mph    
Max Gust Speed 37 mph    
Visibility 8 miles    
Events Fog , Rain    
T = Trace of Precipitation, MM = Missing Value Source: NWS Daily Summary

Daily Weather History Graph

Daily Weather History Graph

Search for Another Location

Airport or City:

Trip Planner

Search our weather history database for the weather conditions in past years. The results will help you decide how hot, cold, wet, or windy it might be!

Date:

Astronomy

Feb. 08, 2013 Rise Set
Actual Time 7:23 AM EST 6:05 PM EST
Civil Twilight 6:57 AM EST 6:31 PM EST
Nautical Twilight 6:27 AM EST 7:02 PM EST
Astronomical Twilight 5:57 AM EST 7:31 PM EST
Moon 5:49 AM EST (2/8) 4:38 PM EST (2/8)
Length of Visible Light 11h 34m
Length of Day
10h 42m
Waning Crescent, 3% of the Moon is Illuminated
Feb 8
Waning Crescent
Feb 10
New
Feb 17
First Quarter
Feb 25
Full
Mar 4
Last Quarter

Hourly Weather History & Observations

Time (EST) Temp. Windchill Dew Point Humidity Pressure Visibility Wind Dir Wind Speed Gust Speed Precip Events Conditions
12:09 AM 42.8 °F 41.1 °F 41.0 °F 93% 29.97 in 9.0 mi NW 3.5 mph - N/A   Overcast
12:20 AM 42.8 °F - 41.0 °F 93% 29.97 in 10.0 mi Calm Calm - N/A   Overcast
12:29 AM 42.8 °F 41.1 °F 41.0 °F 93% 29.97 in 10.0 mi Variable 3.5 mph - N/A   Overcast
12:37 AM 42.8 °F - 39.2 °F 87% 29.96 in 10.0 mi Calm Calm - N/A   Overcast
12:54 AM 41.0 °F - 41.0 °F 100% 29.96 in 6.0 mi Calm Calm - N/A   Overcast
1:54 AM 42.1 °F - 39.0 °F 89% 29.95 in 10.0 mi Calm Calm - N/A   Overcast
2:54 AM 41.0 °F - 39.0 °F 93% 29.93 in 10.0 mi Calm Calm - 0.00 in Rain Light Rain
3:45 AM 41.0 °F - 39.2 °F 93% 29.91 in 10.0 mi Calm Calm - 0.00 in   Overcast
3:54 AM 41.0 °F - 39.0 °F 93% 29.92 in 10.0 mi Calm Calm - 0.00 in   Overcast
4:54 AM 41.0 °F - 39.9 °F 96% 29.92 in 10.0 mi Calm Calm - 0.00 in   Overcast
5:54 AM 41.0 °F - 39.9 °F 96% 29.91 in 10.0 mi Calm Calm - 0.00 in   Overcast
6:43 AM 39.2 °F - 39.2 °F 100% 29.91 in 6.0 mi Calm Calm - N/A   Mostly Cloudy
6:54 AM 39.9 °F - 37.9 °F 93% 29.91 in 6.0 mi Calm Calm - N/A   Mostly Cloudy
6:59 AM 39.2 °F - 37.4 °F 93% 29.91 in 1.2 mi Calm Calm - N/A   Mostly Cloudy
7:04 AM 37.4 °F - 37.4 °F 100% 29.91 in 0.5 mi Calm Calm - N/A Fog Fog
7:18 AM 37.4 °F - 37.4 °F 100% 29.91 in 0.2 mi Calm Calm - N/A Fog Fog
7:34 AM 35.6 °F 31.7 °F 35.6 °F 100% 29.91 in 0.2 mi SW 4.6 mph - N/A Fog Fog
7:44 AM 35.6 °F 32.8 °F 35.6 °F 100% 29.92 in 0.2 mi WSW 3.5 mph - N/A Fog Fog
7:54 AM 37.0 °F - 37.0 °F 100% 29.94 in 1.0 mi Calm Calm - N/A   Overcast
7:57 AM 37.4 °F - 37.4 °F 100% 29.94 in 2.0 mi Calm Calm - N/A   Overcast
8:02 AM 37.4 °F - 37.4 °F 100% 29.94 in 3.0 mi Calm Calm - N/A   Overcast
8:10 AM 39.2 °F - 39.2 °F 100% 29.93 in 4.0 mi Calm Calm - N/A   Overcast
8:54 AM 41.0 °F 39.0 °F 39.9 °F 96% 29.94 in 8.0 mi East 3.5 mph - N/A   Mostly Cloudy
9:15 AM 42.8 °F - 41.0 °F 93% 29.94 in 10.0 mi Calm Calm - N/A   Mostly Cloudy
9:33 AM 42.8 °F - 41.0 °F 93% 29.94 in 10.0 mi Calm Calm - N/A   Overcast
9:45 AM 42.8 °F - 41.0 °F 93% 29.95 in 10.0 mi Calm Calm - N/A   Overcast
9:54 AM 44.1 °F - 41.0 °F 89% 29.94 in 10.0 mi Calm Calm - N/A   Overcast
10:34 AM 46.4 °F 43.5 °F 42.8 °F 87% 29.94 in 10.0 mi North 5.8 mph - 0.00 in   Overcast
10:41 AM 46.4 °F 42.9 °F 42.8 °F 87% 29.94 in 10.0 mi North 6.9 mph - 0.00 in   Overcast
10:54 AM 46.0 °F 41.0 °F 42.1 °F 86% 29.95 in 10.0 mi NNW 10.4 mph - 0.00 in   Overcast
11:54 AM 48.0 °F - 42.1 °F 80% 29.93 in 10.0 mi North 16.1 mph - N/A   Overcast
12:01 PM 48.2 °F - 42.8 °F 82% 29.94 in 10.0 mi North 16.1 mph - N/A   Overcast
12:54 PM 46.9 °F - 42.1 °F 83% 29.93 in 10.0 mi NNW 9.2 mph - N/A   Overcast
1:54 PM 46.9 °F - 42.1 °F 83% 29.93 in 10.0 mi North 17.3 mph 24.2 mph N/A   Overcast
2:09 PM 46.4 °F 39.2 °F 42.8 °F 87% 29.93 in 10.0 mi NNW 18.4 mph 25.3 mph 0.00 in Rain Light Rain
2:54 PM 48.9 °F - 37.0 °F 64% 29.93 in 10.0 mi NNW 17.3 mph 26.5 mph 0.00 in   Clear
3:54 PM 52.0 °F - 30.9 °F 45% 29.94 in 10.0 mi NW 15.0 mph 25.3 mph N/A   Partly Cloudy
4:54 PM 48.9 °F - 28.9 °F 46% 29.96 in 10.0 mi NNW 20.7 mph 28.8 mph N/A   Clear
5:54 PM 46.0 °F 39.0 °F 27.0 °F 47% 29.99 in 10.0 mi NNW 17.3 mph 21.9 mph N/A   Clear
6:54 PM 42.1 °F 33.9 °F 30.0 °F 62% 30.04 in 10.0 mi North 17.3 mph 23.0 mph N/A   Clear
7:54 PM 37.9 °F 28.2 °F 30.0 °F 73% 30.07 in 10.0 mi North 18.4 mph 28.8 mph N/A   Clear
8:54 PM 37.0 °F 27.4 °F 28.0 °F 70% 30.09 in 10.0 mi North 17.3 mph 32.2 mph N/A   Clear
9:54 PM 36.0 °F 25.6 °F 27.0 °F 70% 30.12 in 10.0 mi North 18.4 mph 33.4 mph N/A   Partly Cloudy
10:54 PM 35.1 °F 24.5 °F 26.1 °F 70% 30.12 in 10.0 mi North 18.4 mph 36.8 mph N/A   Clear
11:54 PM 34.0 °F 22.1 °F 25.0 °F 70% 30.13 in 10.0 mi North 21.9 mph 33.4 mph N/A   Clear